This is the latest recevied weather packets stored in our database for station/object DL9LAF-4. If no packets are shown the sender has not sent any weather packets the latest 10 day(s).
| Time | Temp. | Humidity | Pressure | Rain* | Wind** | Luminosity | Snow |
|---|---|---|---|---|---|---|---|
| 1777589153 | 8.89° C | 66% | 1007.4 hPa | 0 mm | - | - | - |
| 1777588553 | 8.89° C | 65% | 1007.4 hPa | 0 mm | - | - | - |
| 1777587953 | 9.44° C | 65% | 1007.2 hPa | 0 mm | - | - | - |
| 1777587353 | 9.44° C | 65% | 1007.2 hPa | 0 mm | - | - | - |
| 1777586753 | 9.44° C | 64% | 1007.2 hPa | 0 mm | - | - | - |
| 1777586153 | 10° C | 63% | 1007.5 hPa | 0 mm | - | - | - |
| 1777585553 | 10° C | 62% | 1007.5 hPa | 0 mm | - | - | - |
| 1777584953 | 10.56° C | 62% | 1007.5 hPa | 0 mm | - | - | - |
| 1777584353 | 10.56° C | 62% | 1007.5 hPa | 0 mm | - | - | - |
| 1777583753 | 11.11° C | 62% | 1007.5 hPa | 0 mm | - | - | - |
| 1777583153 | 11.11° C | 62% | 1007.5 hPa | 0 mm | - | - | - |
| 1777582553 | 11.11° C | 62% | 1007.5 hPa | 0 mm | - | - | - |
| 1777581953 | 11.67° C | 62% | 1007.7 hPa | 0 mm | - | - | - |
| 1777581353 | 11.67° C | 62% | 1007.7 hPa | 0 mm | - | - | - |
| 1777580753 | 11.67° C | 62% | 1007.5 hPa | 0 mm | - | - | - |
| 1777580153 | 11.67° C | 62% | 1007.7 hPa | 0 mm | - | - | - |
| 1777579553 | 12.22° C | 61% | 1007.5 hPa | 0 mm | - | - | - |
| 1777578953 | 12.22° C | 60% | 1007.5 hPa | 0 mm | - | - | - |
| 1777578353 | 12.78° C | 59% | 1007.5 hPa | 0 mm | - | - | - |
| 1777577753 | 12.78° C | 57% | 1007.5 hPa | 0 mm | - | - | - |
| 1777577153 | 13.89° C | 56% | 1007.4 hPa | 0 mm | - | - | - |
| 1777576553 | 14.44° C | 53% | 1007.2 hPa | 0 mm | - | - | - |
| 1777575953 | 15° C | 51% | 1007.2 hPa | 0 mm | - | - | - |
| 1777575353 | 15.56° C | 49% | 1007 hPa | 0 mm | - | - | - |
| 1777574753 | 16.11° C | 48% | 1007 hPa | 0 mm | - | - | - |
* Rain latest hour (hover to see other rain measurements)
** Current wind speed in m/s (hover to see current wind gust speed)